VE6KEE-13 Weather Reports


time (UTC)temp
C
wind
direction
speed
KPH
gust
KPH
rain 1hr
cm
rain 24hr
cm
rain mn
cm
humidity
%
barometer
mb
20260504034857 13 344 22.5 22.5 0.00 0.00 0.00 27 1013.3
20260504033352 14 352 8.0 12.9 0.00 0.00 0.00 27 1013.0
20260504031852 14 349 3.2 17.7 0.00 0.00 0.00 26 1012.7
20260504030351 14 359 9.7 14.5 0.00 0.00 0.00 26 1012.3
20260504024851 15 358 12.9 29.0 0.00 0.00 0.00 25 1012.1
20260504023356 15 1 12.9 25.7 0.00 0.00 0.00 24 1011.9
20260504021851 16 4 8.0 24.1 0.00 0.00 0.00 23 1011.6
20260504020351 16 357 12.9 25.7 0.00 0.00 0.00 22 1011.4
20260504014850 17 10 19.3 29.0 0.00 0.00 0.00 21 1010.9
20260504013350 18 343 17.7 19.3 0.00 0.00 0.00 21 1010.6
20260504011850 18 329 12.9 17.7 0.00 0.00 0.00 21 1010.2
20260504010350 19 355 17.7 17.7 0.00 0.00 0.00 21 1010.1
20260504004845 20 329 16.1 20.9 0.00 0.00 0.00 20 1010.0
20260504003345 20 326 14.5 22.5 0.00 0.00 0.00 20 1010.1
20260504001845 21 324 16.1 19.3 0.00 0.00 0.00 19 1010.0
20260504000346 21 330 22.5 27.4 0.00 0.00 0.00 19 1010.0
20260503234845 21 302 16.1 27.4 0.00 0.00 0.00 17 1009.7
20260503233345 22 316 24.1 24.1 0.00 0.00 0.00 17 1009.7
20260503231840 22 304 11.3 38.6 0.00 0.00 0.00 16 1009.6
20260503223339 23 287 25.7 33.8 0.00 0.00 0.00 14 1009.2
20260503221839 24 282 25.7 40.2 0.00 0.00 0.00 13 1009.1
20260503220344 25 283 20.9 35.4 0.00 0.00 0.00 13 1009.1
20260503214839 26 280 27.4 38.6 0.00 0.00 0.00 12 1009.1
20260503213334 26 275 22.5 35.4 0.00 0.00 0.00 11 1009.1
20260503211834 26 303 17.7 35.4 0.00 0.00 0.00 12 1009.3
20260503210334 26 266 25.7 38.6 0.00 0.00 0.00 12 1009.6
20260503204834 26 271 33.8 35.4 0.00 0.00 0.00 12 1009.5
20260503203339 26 275 20.9 30.6 0.00 0.00 0.00 13 1009.6
20260503201834 26 292 16.1 38.6 0.00 0.00 0.00 13 1009.9
20260503200334 26 266 20.9 38.6 0.00 0.00 0.00 13 1010.3
20260503194833 25 283 49.9 69.2 0.00 0.00 0.00 14 1010.5
20260503193328 25 330 20.9 41.8 0.00 0.00 0.00 15 1010.8
20260503191828 25 270 37.0 45.1 0.00 0.00 0.00 16 1011.1
20260503190333 24 277 16.1 54.7 0.00 0.00 0.00 16 1011.4
20260503184828 23 275 20.9 46.7 0.00 0.00 0.00 17 1011.4
20260503183328 23 292 14.5 48.3 0.00 0.00 0.00 17 1011.6
20260503181828 22 274 30.6 57.9 0.00 0.00 0.00 18 1011.8
20260503180328 22 265 32.2 40.2 0.00 0.00 0.00 19 1011.8
20260503174823 21 262 20.9 37.0 0.00 0.00 0.00 21 1012.3
20260503173328 21 268 14.5 20.9 0.00 0.00 0.00 22 1012.6
20260503171822 20 268 11.3 16.1 0.00 0.00 0.00 24 1012.8
20260503170322 21 253 4.8 8.0 0.00 0.00 0.00 23 1012.8
20260503150316 16 262 12.9 14.5 0.00 0.00 0.00 33 1013.8
20260503140312 11 216 4.8 9.7 0.00 0.00 0.00 46 1014.0
20260503130314 8 224 4.8 8.0 0.00 0.00 0.00 50 1014.5
20260503110303 8 228 6.4 9.7 0.00 0.00 0.00 48 1014.5
20260503090257 8 202 4.8 14.5 0.00 0.00 0.00 46 1015.3
20260503080254 9 178 4.8 8.0 0.00 0.00 0.00 44 1015.5
20260503071751 10 139 0.0 8.0 0.00 0.00 0.00 43 1015.9
20260503070256 10 270 0.0 4.8 0.00 0.00 0.00 42 1016.1
20260503060250 11 174 0.0 1.6 0.00 0.00 0.00 40 1016.2
20260503054747 11 173 1.6 3.2 0.00 0.00 0.00 39 1016.3
20260503053247 12 174 1.6 1.6 0.00 0.00 0.00 37 1016.3
20260503051745 12 225 0.0 6.4 0.00 0.00 0.00 37 1016.3
20260503050245 12 170 1.6 3.2 0.00 0.00 0.00 35 1016.3
20260503044744 13 171 3.2 4.8 0.00 0.00 0.00 34 1016.3
20260503043245 13 132 1.6 3.2 0.00 0.00 0.00 34 1016.4
20260503041743 14 173 0.0 1.6 0.00 0.00 0.00 33 1016.5
20260503040249 14 46 1.6 3.2 0.00 0.00 0.00 32 1016.3